Weather in Udarny

Russia / Karachay-Cherkess Republic     44°20′56″N   42°30′10″E
temp.,
°C
wind,
m/s
gust,
m/s
humid.,
%
clouds,
%
prec.,
mm/h
press.,
hPa
HPBL,
m
17 april, sat
sat1700:00+8ene1197100 0.0 101914
03:00+9nw119589 0.0 101814
06:00+9w3793100 0.0 1020338
09:00+9nw5887100 0.0 1022613
12:00+9nw4584100 0.1 1022514
15:00+9nnw3385100 0.2 1023484
18:00+8ne1294100 1.9 1023186
21:00+7ene2396100 2.0 1023173
18 april, sun
sun1800:00+7ene1397100 0.0 1022156
03:00+6e2498100 0.0 1021146
06:00+7e3898100 0.0 1020271
09:00+11e6779100 0.0 1018563
12:00+14e4470100 0.3 1017681
15:00+13e4580100 2.5 1016432
18:00+13ese248878 5.0 1017156
21:00+9e1195100 5.1 101811
19 april, mon
mon1900:00+9sw1193100 0.1 101810
03:00+10sse118686 0.1 101610
06:00+11s1178100 0.0 101710
09:00+16e226099 0.0 1015201
12:00+21ene454990 0.0 10141033
15:00+15n4779100 0.9 1015167
18:00+15ene3687100 0.2 1015340
21:00+12e3695100 0.6 1013155
20 april, tue
tue2000:00+12ese3887100 0.0 1011159
03:00+12e3585100 0.1 100889
06:00+12e3582100 0.1 100694
09:00+15ene3474100 0.1 1005133
12:00+16e2474100 0.0 1006161
15:00+20wnw4561100 0.2 1007822
18:00+14nw7981100 1.3 1010591
21:00+9wnw3784100 1.9 1015523
21 april, wed
wed2100:00+9sw238592 0.1 1016275
03:00+9se0086100 0.4 101749
06:00+9ne3592100 0.3 1019299
09:00+7n5895100 2.5 1020446
12:00+6n3493100 2.5 1022388
15:00+7ne2391100 3.1 1022392
18:00+7e1392100 0.1 1022278
21:00+7ese2794100 0.1 1022263